Torna al catalogo

STARLINK-35300

AttivoComunicazioniSSO
NORAD 65800·PAYLOAD·🇺🇸 United States

Lanciato Sep 26, 2025 da Vandenberg Space Force Base

Loading…

Prossimi Passaggi (prossime 24 ore)

TLE

AggiornatoSource: CelesTrak SupGP

Epoca: Sep 14, 2026, 14:09 UTC

1 65800C 25218K   26257.59006944  .00033036  00000+0  10257-2 0  2574
2 65800  97.2844 115.0264 0001753  82.5492  28.0462 15.33415515    16

Traccia STARLINK-35300 in tempo reale con AllMySat

Download on the App Store